This is the latest recevied weather packets stored in our database for station/object NO3U. If no packets are shown the sender has not sent any weather packets the latest 10 day(s).
| Time | Temp. | Humidity | Pressure | Rain* | Wind** | Luminosity | Snow |
|---|---|---|---|---|---|---|---|
| 1777967448 | 17.22° C | 72% | 1007 hPa | 0 mm | - | 0 W/m² | - |
| 1777967145 | 17.22° C | 71% | 1006.7 hPa | 0 mm | - | 0 W/m² | - |
| 1777966842 | 17.22° C | 70% | 1006.8 hPa | 0 mm | - | 0 W/m² | - |
| 1777966539 | 17.78° C | 70% | 1006.9 hPa | 0 mm | - | 0 W/m² | - |
| 1777966238 | 17.78° C | 69% | 1006.7 hPa | 0 mm | - | 0 W/m² | - |
| 1777965933 | 17.78° C | 68% | 1006.7 hPa | 0 mm | - | 0 W/m² | - |
| 1777965630 | 17.78° C | 69% | 1006.4 hPa | 0 mm | - | 0 W/m² | - |
| 1777965325 | 17.78° C | 70% | 1006.6 hPa | 0 mm | - | 0 W/m² | - |
| 1777965024 | 17.78° C | 69% | 1006.7 hPa | 0 mm | - | 0 W/m² | - |
| 1777964721 | 17.78° C | 69% | 1006.5 hPa | 0 mm | - | 0 W/m² | - |
| 1777964416 | 17.78° C | 69% | 1006.5 hPa | 0 mm | - | 0 W/m² | - |
| 1777964113 | 17.78° C | 68% | 1006.7 hPa | 0 mm | - | 0 W/m² | - |
| 1777963809 | 17.78° C | 68% | 1006.6 hPa | 0 mm | - | 0 W/m² | - |
| 1777963506 | 17.78° C | 69% | 1006.7 hPa | 0 mm | - | 0 W/m² | - |
| 1777963205 | 17.78° C | 69% | 1006.7 hPa | 0 mm | - | 0 W/m² | - |
| 1777962902 | 17.78° C | 71% | 1006.7 hPa | 0 mm | - | 0 W/m² | - |
| 1777962597 | 17.22° C | 70% | 1006.7 hPa | 0 mm | - | 0 W/m² | - |
| 1777962294 | 16.67° C | 73% | 1006.7 hPa | 0 mm | - | 0 W/m² | - |
| 1777961991 | 17.78° C | 72% | 1007 hPa | 0 mm | - | 0 W/m² | - |
| 1777961689 | 17.22° C | 70% | 1007.1 hPa | 0 mm | - | 0 W/m² | - |
| 1777961386 | 17.22° C | 72% | 1007 hPa | 0 mm | - | 0 W/m² | - |
| 1777961084 | 17.22° C | 72% | 1006.9 hPa | 0 mm | - | 0 W/m² | - |
| 1777960780 | 17.22° C | 75% | 1007 hPa | 0 mm | - | 0 W/m² | - |
| 1777960476 | 16.67° C | 72% | 1007.1 hPa | 0 mm | - | 0 W/m² | - |
| 1777960173 | 17.22° C | 71% | 1007.1 hPa | 0 mm | - | 0 W/m² | - |
* Rain latest hour (hover to see other rain measurements)
** Current wind speed in m/s (hover to see current wind gust speed)